Terug naar catalogus

COSMOS 970 DEB

ActiefLEO
NORAD 14445·DEBRIS·🇷🇺 Russia

Gelanceerd Dec 21, 1977 vanaf Baikonur Cosmodrome

Loading…

Volgende Passages (komende 24 uur)

TLE

VersSource: Space-Track

Epoch: Sep 14, 2026, 08:01 UTC

1 14445U 77121BH  26257.33448695  .00009065  00000-0  14773-2 0  9994
2 14445  66.4592 326.4412 0030567  27.8003 332.4739 14.71066845205331

Volg COSMOS 970 DEB in realtime met AllMySat

Download on the App Store